Time,TemperatureF,DewpointF,PressureIn,WindDirection,WindDirectionDegrees,WindSpeedMPH,WindSpeedGustMPH,Humidity,HourlyPrecipIn,Conditions,Clouds,dailyrainin,SoftwareType,DateUTC
2013-02-08 00:00:00,22.2,20.1,30.05,NNW,343,6.3,18.4,91,-99.99,,,-99.99,VWS V14.01,2013-02-08 05:00:00,
2013-02-08 09:37:00,32.6,30.2,29.88,SSE,166,0.0,0.0,91,-99.99,,,-99.99,VWS V14.01,2013-02-08 14:37:00,
2013-02-08 09:42:00,32.6,30.2,29.87,SSE,166,0.0,0.0,91,-99.99,,,-99.99,VWS V14.01,2013-02-08 14:42:00,
2013-02-08 09:49:00,32.8,30.4,29.87,SSE,166,0.0,0.0,91,-99.99,,,-99.99,VWS V14.01,2013-02-08 14:49:00,
2013-02-08 09:54:00,32.8,30.3,29.87,SSE,166,0.0,0.0,90,-99.99,,,-99.99,VWS V14.01,2013-02-08 14:54:00,
2013-02-08 09:59:00,32.8,30.3,29.87,SSE,166,0.0,0.0,90,-99.99,,,-99.99,VWS V14.01,2013-02-08 14:59:00,
2013-02-08 10:04:00,32.8,30.3,29.86,SSE,166,0.0,0.0,90,-99.99,,,-99.99,VWS V14.01,2013-02-08 15:04:00,
2013-02-08 10:09:00,32.8,30.3,29.86,SSE,166,0.0,0.0,90,-99.99,,,-99.99,VWS V14.01,2013-02-08 15:09:00,
2013-02-08 10:14:00,32.9,30.4,29.86,SSE,166,0.0,0.0,90,-99.99,,,-99.99,VWS V14.01,2013-02-08 15:14:00,
2013-02-08 10:19:00,32.9,30.3,29.85,SSE,166,0.0,0.0,90,-99.99,,,-99.99,VWS V14.01,2013-02-08 15:19:00,
2013-02-08 10:24:00,32.9,30.3,29.84,SSE,166,0.0,0.0,90,-99.99,,,-99.99,VWS V14.01,2013-02-08 15:24:00,
2013-02-08 10:29:00,33.1,30.5,29.84,SSE,166,0.0,0.0,90,-99.99,,,-99.99,VWS V14.01,2013-02-08 15:29:00,
2013-02-08 10:34:00,33.3,30.6,29.84,SSE,166,0.0,0.0,90,-99.99,,,-99.99,VWS V14.01,2013-02-08 15:34:00,
2013-02-08 10:39:00,33.3,30.6,29.84,SSE,166,0.0,0.0,90,-99.99,,,-99.99,VWS V14.01,2013-02-08 15:39:00,
2013-02-08 10:44:00,33.5,30.7,29.83,SSE,166,0.0,0.0,89,-99.99,,,-99.99,VWS V14.01,2013-02-08 15:44:00,
2013-02-08 10:49:00,33.7,30.8,29.83,SSE,166,0.0,0.0,89,-99.99,,,-99.99,VWS V14.01,2013-02-08 15:49:00,
2013-02-08 10:54:00,33.8,30.9,29.83,SSE,166,0.0,0.0,89,-99.99,,,-99.99,VWS V14.01,2013-02-08 15:54:00,
2013-02-08 10:59:00,34.0,31.0,29.83,SSE,166,0.0,0.0,89,-99.99,,,-99.99,VWS V14.01,2013-02-08 15:59:00,
2013-02-08 11:04:00,34.0,30.9,29.84,SSE,166,0.0,0.0,88,-99.99,,,-99.99,VWS V14.01,2013-02-08 16:04:00,
2013-02-08 11:09:00,34.1,31.0,29.83,SSE,166,0.0,0.0,88,-99.99,,,-99.99,VWS V14.01,2013-02-08 16:09:00,
2013-02-08 11:14:00,34.0,31.0,29.84,SSE,166,0.0,0.0,88,-99.99,,,-99.99,VWS V14.01,2013-02-08 16:14:00,
2013-02-08 11:19:00,33.9,31.0,29.83,SSE,166,0.0,0.0,89,-99.99,,,-99.99,VWS V14.01,2013-02-08 16:19:00,
2013-02-08 11:24:00,34.1,31.3,29.83,SSE,166,0.0,0.0,89,-99.99,,,-99.99,VWS V14.01,2013-02-08 16:24:00,
2013-02-08 11:29:00,33.8,31.4,29.83,SSE,166,0.0,0.0,91,-99.99,,,-99.99,VWS V14.01,2013-02-08 16:29:00,
2013-02-08 11:34:00,33.6,31.3,29.83,SSE,166,0.0,0.0,91,-99.99,,,-99.99,VWS V14.01,2013-02-08 16:34:00,
2013-02-08 11:39:00,33.4,31.2,29.83,SSE,166,0.0,0.0,92,-99.99,,,-99.99,VWS V14.01,2013-02-08 16:39:00,
2013-02-08 11:44:00,33.5,31.4,29.83,SSE,166,0.0,0.0,92,-99.99,,,-99.99,VWS V14.01,2013-02-08 16:44:00,
2013-02-08 11:49:00,33.4,31.5,29.82,SSE,166,0.0,0.0,93,-99.99,,,-99.99,VWS V14.01,2013-02-08 16:49:00,
2013-02-08 11:54:00,33.2,31.6,29.82,SSE,166,0.0,0.0,94,-99.99,,,-99.99,VWS V14.01,2013-02-08 16:54:00,
2013-02-08 11:59:00,32.9,31.7,29.82,SSE,166,0.0,0.0,95,-99.99,,,-99.99,VWS V14.01,2013-02-08 16:59:00,
2013-02-08 12:04:00,32.6,31.7,29.82,SSE,166,0.0,0.0,97,-99.99,,,-99.99,VWS V14.01,2013-02-08 17:04:00,
2013-02-08 12:09:00,32.7,32.0,29.82,SSE,166,0.0,0.0,97,-99.99,,,-99.99,VWS V14.01,2013-02-08 17:09:00,
2013-02-08 12:14:00,32.6,32.1,29.81,SSE,166,0.0,0.0,98,-99.99,,,-99.99,VWS V14.01,2013-02-08 17:14:00,
2013-02-08 12:19:00,32.8,32.4,29.81,SSE,166,0.0,0.0,98,-99.99,,,-99.99,VWS V14.01,2013-02-08 17:19:00,
2013-02-08 12:24:00,32.7,32.4,29.81,SSE,166,0.0,0.0,99,-99.99,,,-99.99,VWS V14.01,2013-02-08 17:24:00,
2013-02-08 12:29:00,32.8,32.6,29.80,SSE,166,0.0,0.0,99,-99.99,,,-99.99,VWS V14.01,2013-02-08 17:29:00,
2013-02-08 12:34:00,32.7,32.6,29.80,SSE,166,0.0,0.0,100,-99.99,,,-99.99,VWS V14.01,2013-02-08 17:34:00,
2013-02-08 12:39:00,32.7,32.7,29.79,SSE,166,0.0,0.0,100,-99.99,,,-99.99,VWS V14.01,2013-02-08 17:39:00,
2013-02-08 12:44:00,32.8,32.8,29.80,SSE,166,0.0,0.0,100,-99.99,,,-99.99,VWS V14.01,2013-02-08 17:44:00,
2013-02-08 12:49:00,32.9,32.9,29.80,SSE,166,0.0,0.0,100,-99.99,,,-99.99,VWS V14.01,2013-02-08 17:49:00,
2013-02-08 12:55:00,32.9,32.9,29.80,SSE,166,0.0,0.0,100,-99.99,,,-99.99,VWS V14.01,2013-02-08 17:55:00,
2013-02-08 13:00:00,32.7,32.7,29.80,SSE,166,0.0,0.0,100,-99.99,,,-99.99,VWS V14.01,2013-02-08 18:00:00,
2013-02-08 13:05:00,32.7,32.7,29.80,SSE,166,0.0,0.0,100,-99.99,,,-99.99,VWS V14.01,2013-02-08 18:05:00,
2013-02-08 13:10:00,32.7,32.7,29.79,SSE,166,0.0,0.0,100,-99.99,,,-99.99,VWS V14.01,2013-02-08 18:10:00,
2013-02-08 13:15:00,32.7,32.7,29.79,SSE,166,0.0,0.0,100,-99.99,,,-99.99,VWS V14.01,2013-02-08 18:15:00,
2013-02-08 13:20:00,32.7,32.7,29.79,SSE,166,0.0,0.0,100,-99.99,,,-99.99,VWS V14.01,2013-02-08 18:20:00,
2013-02-08 13:25:00,32.8,32.8,29.79,SSE,166,0.0,0.0,100,-99.99,,,-99.99,VWS V14.01,2013-02-08 18:25:00,
2013-02-08 13:30:00,32.9,32.9,29.79,SSE,166,0.0,0.0,100,-99.99,,,-99.99,VWS V14.01,2013-02-08 18:30:00,
2013-02-08 13:35:00,33.1,33.1,29.79,SSE,166,0.0,0.0,100,-99.99,,,-99.99,VWS V14.01,2013-02-08 18:35:00,
2013-02-08 13:40:00,33.1,33.1,29.79,SSE,166,0.0,0.0,100,-99.99,,,-99.99,VWS V14.01,2013-02-08 18:40:00,
2013-02-08 13:45:00,33.3,33.3,29.79,SSE,166,0.0,0.0,100,-99.99,,,-99.99,VWS V14.01,2013-02-08 18:45:00,
2013-02-08 13:50:00,33.4,33.4,29.79,SSE,166,0.0,0.0,100,-99.99,,,-99.99,VWS V14.01,2013-02-08 18:50:00,
2013-02-08 13:55:00,33.4,33.4,29.79,SSE,166,0.0,0.0,100,-99.99,,,-99.99,VWS V14.01,2013-02-08 18:55:00,
2013-02-08 14:00:00,33.5,33.5,29.79,SSE,166,0.0,0.0,100,-99.99,,,-99.99,VWS V14.01,2013-02-08 19:00:00,
2013-02-08 14:05:00,33.5,33.5,29.79,SSE,166,0.0,0.0,100,-99.99,,,-99.99,VWS V14.01,2013-02-08 19:05:00,
2013-02-08 14:10:00,33.5,33.5,29.79,SSE,166,0.0,0.0,100,-99.99,,,-99.99,VWS V14.01,2013-02-08 19:10:00,
2013-02-08 14:15:00,33.6,33.6,29.79,SSE,166,0.0,0.0,100,-99.99,,,-99.99,VWS V14.01,2013-02-08 19:15:00,
2013-02-08 14:20:00,33.6,33.6,29.78,SSE,166,0.0,0.0,100,-99.99,,,-99.99,VWS V14.01,2013-02-08 19:20:00,
2013-02-08 14:25:00,33.8,33.8,29.79,SSE,166,0.0,0.0,100,-99.99,,,-99.99,VWS V14.01,2013-02-08 19:25:00,
2013-02-08 14:30:00,33.8,33.8,29.78,SSE,166,0.0,0.0,100,-99.99,,,-99.99,VWS V14.01,2013-02-08 19:30:00,
2013-02-08 14:35:00,34.0,34.0,29.79,ESE,117,0.0,0.0,100,-99.99,,,-99.99,VWS V14.01,2013-02-08 19:35:00,
2013-02-08 14:40:00,34.2,34.2,29.78,ESE,117,0.0,0.0,100,-99.99,,,-99.99,VWS V14.01,2013-02-08 19:40:00,
2013-02-08 14:45:00,34.2,34.2,29.78,ESE,117,0.0,0.0,100,-99.99,,,-99.99,VWS V14.01,2013-02-08 19:45:00,
2013-02-08 14:50:00,34.2,34.2,29.79,NW,309,5.9,8.2,100,-99.99,,,-99.99,VWS V14.01,2013-02-08 19:50:00,
2013-02-08 14:55:00,34.3,34.3,29.79,West,264,0.0,0.0,100,-99.99,,,-99.99,VWS V14.01,2013-02-08 19:55:00,
2013-02-08 15:00:00,34.1,34.1,29.79,SW,232,5.6,8.7,100,-99.99,,,-99.99,VWS V14.01,2013-02-08 20:00:00,
2013-02-08 15:05:00,33.8,33.8,29.79,West,260,8.2,11.7,100,-99.99,,,-99.99,VWS V14.01,2013-02-08 20:05:00,
2013-02-08 15:10:00,33.6,33.6,29.80,West,269,0.0,11.2,100,-99.99,,,-99.99,VWS V14.01,2013-02-08 20:10:00,
2013-02-08 15:15:00,32.8,32.8,29.80,NW,322,7.0,13.0,100,-99.99,,,-99.99,VWS V14.01,2013-02-08 20:15:00,
2013-02-08 15:20:00,32.7,32.7,29.81,WSW,256,4.8,9.4,100,-99.99,,,-99.99,VWS V14.01,2013-02-08 20:20:00,
2013-02-08 15:25:00,32.2,32.2,29.81,WNW,291,7.3,11.4,100,-99.99,,,-99.99,VWS V14.01,2013-02-08 20:25:00,
2013-02-08 15:30:00,31.9,31.9,29.82,NW,326,14.2,14.2,100,-99.99,,,-99.99,VWS V14.01,2013-02-08 20:30:00,
2013-02-08 15:35:00,32.0,32.0,29.82,WSW,238,0.0,6.3,100,-99.99,,,-99.99,VWS V14.01,2013-02-08 20:35:00,
2013-02-08 15:40:00,31.6,31.5,29.82,NNE,31,0.0,12.7,100,-99.99,,,-99.99,VWS V14.01,2013-02-08 20:40:00,
2013-02-08 15:45:00,31.4,31.2,29.82,West,273,5.3,9.9,99,-99.99,,,-99.99,VWS V14.01,2013-02-08 20:45:00,
2013-02-08 15:50:00,31.3,31.0,29.83,WSW,240,1.7,7.0,99,-99.99,,,-99.99,VWS V14.01,2013-02-08 20:50:00,
2013-02-08 15:55:00,31.2,30.6,29.83,SSW,195,6.1,12.0,98,-99.99,,,-99.99,VWS V14.01,2013-02-08 20:55:00,
2013-02-08 16:00:00,31.1,30.4,29.83,WSW,246,5.0,8.1,97,-99.99,,,-99.99,VWS V14.01,2013-02-08 21:00:00,
2013-02-08 16:05:00,30.8,29.9,29.83,WSW,245,3.0,15.0,96,-99.99,,,-99.99,VWS V14.01,2013-02-08 21:05:00,
2013-02-08 16:10:00,30.7,29.7,29.84,North,352,8.0,8.0,96,-99.99,,,-99.99,VWS V14.01,2013-02-08 21:10:00,
2013-02-08 16:15:00,30.4,29.4,29.84,NNW,338,0.0,9.1,96,-99.99,,,-99.99,VWS V14.01,2013-02-08 21:15:00,
2013-02-08 16:20:00,30.2,29.1,29.84,NW,316,0.0,7.0,96,-99.99,,,-99.99,VWS V14.01,2013-02-08 21:20:00,
2013-02-08 16:25:00,30.0,28.9,29.84,NNW,333,7.8,11.8,96,-99.99,,,-99.99,VWS V14.01,2013-02-08 21:25:00,
2013-02-08 16:30:00,30.0,28.6,29.85,WNW,302,4.3,6.0,94,-99.99,,,-99.99,VWS V14.01,2013-02-08 21:30:00,
2013-02-08 16:35:00,29.9,28.5,29.85,West,276,7.3,10.1,94,-99.99,,,-99.99,VWS V14.01,2013-02-08 21:35:00,
2013-02-08 16:40:00,29.8,28.2,29.84,WNW,298,4.9,11.9,94,-99.99,,,-99.99,VWS V14.01,2013-02-08 21:40:00,
2013-02-08 16:45:00,29.9,28.4,29.85,NW,305,5.7,8.0,94,-99.99,,,-99.99,VWS V14.01,2013-02-08 21:45:00,
2013-02-08 16:50:00,29.8,28.4,29.85,West,277,0.0,3.4,94,-99.99,,,-99.99,VWS V14.01,2013-02-08 21:50:00,
2013-02-08 16:55:00,29.8,28.4,29.85,West,276,0.0,8.1,94,-99.99,,,-99.99,VWS V14.01,2013-02-08 21:55:00,
2013-02-08 17:00:00,29.5,28.0,29.85,NW,322,7.2,13.9,94,-99.99,,,-99.99,VWS V14.01,2013-02-08 22:00:00,
2013-02-08 17:05:00,29.3,27.8,29.85,West,271,7.1,12.4,94,-99.99,,,-99.99,VWS V14.01,2013-02-08 22:05:00,
2013-02-08 17:10:00,28.9,27.0,29.86,NW,325,8.7,16.5,92,-99.99,,,-99.99,VWS V14.01,2013-02-08 22:10:00,
2013-02-08 17:15:00,28.7,26.6,29.86,WNW,298,6.2,14.3,92,-99.99,,,-99.99,VWS V14.01,2013-02-08 22:15:00,
2013-02-08 17:20:00,28.5,26.2,29.86,West,264,4.8,10.8,91,-99.99,,,-99.99,VWS V14.01,2013-02-08 22:20:00,
2013-02-08 17:25:00,28.5,26.3,29.86,NW,314,0.0,4.2,92,-99.99,,,-99.99,VWS V14.01,2013-02-08 22:25:00,
2013-02-08 17:30:00,28.4,26.1,29.86,WNW,302,0.0,0.0,91,-99.99,,,-99.99,VWS V14.01,2013-02-08 22:30:00,
2013-02-08 17:35:00,28.4,26.2,29.86,West,278,4.5,4.5,92,-99.99,,,-99.99,VWS V14.01,2013-02-08 22:35:00,
2013-02-08 17:40:00,28.3,26.2,29.86,NW,314,5.1,11.2,92,-99.99,,,-99.99,VWS V14.01,2013-02-08 22:40:00,
2013-02-08 17:45:00,28.2,26.4,29.87,NNW,340,4.7,7.5,93,-99.99,,,-99.99,VWS V14.01,2013-02-08 22:45:00,
2013-02-08 17:50:00,27.9,25.8,29.87,WNW,300,5.2,5.3,92,-99.99,,,-99.99,VWS V14.01,2013-02-08 22:50:00,
2013-02-08 17:55:00,27.6,25.2,29.88,NW,305,13.0,15.2,91,-99.99,,,-99.99,VWS V14.01,2013-02-08 22:55:00,
2013-02-08 18:00:00,27.3,24.6,29.88,NNW,336,7.0,17.5,89,-99.99,,,-99.99,VWS V14.01,2013-02-08 23:00:00,
2013-02-08 18:05:00,27.3,24.6,29.89,NW,308,8.9,9.3,90,-99.99,,,-99.99,VWS V14.01,2013-02-08 23:05:00,
2013-02-08 18:10:00,27.3,24.6,29.89,WSW,242,0.0,8.1,90,-99.99,,,-99.99,VWS V14.01,2013-02-08 23:10:00,
2013-02-08 18:15:00,27.3,24.6,29.90,WNW,291,7.1,9.8,89,-99.99,,,-99.99,VWS V14.01,2013-02-08 23:15:00,
2013-02-08 18:20:00,27.0,24.3,29.90,WNW,285,5.2,8.0,90,-99.99,,,-99.99,VWS V14.01,2013-02-08 23:20:00,
2013-02-08 18:25:00,26.8,24.0,29.91,NNE,20,6.6,8.5,89,-99.99,,,-99.99,VWS V14.01,2013-02-08 23:25:00,
2013-02-08 18:30:00,26.6,23.4,29.91,NW,323,7.4,8.5,88,-99.99,,,-99.99,VWS V14.01,2013-02-08 23:30:00,
2013-02-08 18:35:00,26.6,23.6,29.92,West,280,6.9,8.8,88,-99.99,,,-99.99,VWS V14.01,2013-02-08 23:35:00,
2013-02-08 18:40:00,26.4,23.0,29.92,SW,222,9.2,9.2,87,-99.99,,,-99.99,VWS V14.01,2013-02-08 23:40:00,
2013-02-08 18:45:00,26.5,23.2,29.92,NNW,339,0.0,0.0,87,-99.99,,,-99.99,VWS V14.01,2013-02-08 23:45:00,
2013-02-08 18:50:00,26.5,23.5,29.92,WSW,242,0.0,2.1,88,-99.99,,,-99.99,VWS V14.01,2013-02-08 23:50:00,
2013-02-08 18:55:00,26.4,23.3,29.93,NW,312,6.7,9.4,88,-99.99,,,-99.99,VWS V14.01,2013-02-08 23:55:00,
2013-02-08 19:00:00,26.2,22.9,29.93,NW,314,0.0,5.0,87,-99.99,,,-99.99,VWS V14.01,2013-02-09 00:00:00,
2013-02-08 19:05:00,26.1,23.1,29.93,SW,224,3.4,7.1,88,-99.99,,,-99.99,VWS V14.01,2013-02-09 00:05:00,
2013-02-08 19:10:00,25.9,22.7,29.93,West,269,5.4,7.3,88,-99.99,,,-99.99,VWS V14.01,2013-02-09 00:10:00,
2013-02-08 19:15:00,25.6,22.5,29.94,NNW,347,0.0,5.8,88,-99.99,,,-99.99,VWS V14.01,2013-02-09 00:15:00,
2013-02-08 19:20:00,25.2,22.0,29.95,North,7,3.3,9.7,88,-99.99,,,-99.99,VWS V14.01,2013-02-09 00:20:00,
2013-02-08 19:25:00,24.9,21.7,29.95,West,264,12.1,12.1,87,-99.99,,,-99.99,VWS V14.01,2013-02-09 00:25:00,
2013-02-08 19:30:00,24.9,21.8,29.95,WNW,298,5.2,10.5,88,-99.99,,,-99.99,VWS V14.01,2013-02-09 00:30:00,
2013-02-08 19:35:00,24.6,21.4,29.95,West,274,0.0,7.3,88,-99.99,,,-99.99,VWS V14.01,2013-02-09 00:35:00,
2013-02-08 19:40:00,24.7,21.7,29.95,West,269,0.0,4.5,88,-99.99,,,-99.99,VWS V14.01,2013-02-09 00:40:00,
2013-02-08 19:45:00,24.4,21.6,29.95,WSW,257,2.9,5.4,89,-99.99,,,-99.99,VWS V14.01,2013-02-09 00:45:00,
2013-02-08 19:50:00,24.1,21.2,29.95,West,266,6.3,6.8,88,-99.99,,,-99.99,VWS V14.01,2013-02-09 00:50:00,
2013-02-08 19:55:00,24.2,21.6,29.95,SSW,200,0.0,0.0,90,-99.99,,,-99.99,VWS V14.01,2013-02-09 00:55:00,
2013-02-08 20:00:00,24.2,21.5,29.96,WSW,246,11.0,13.8,89,-99.99,,,-99.99,VWS V14.01,2013-02-09 01:00:00,
2013-02-08 20:05:00,24.1,21.4,29.95,West,281,9.8,9.8,89,-99.99,,,-99.99,VWS V14.01,2013-02-09 01:05:00,
2013-02-08 20:10:00,23.7,20.8,29.95,NNW,333,24.3,24.3,88,-99.99,,,-99.99,VWS V14.01,2013-02-09 01:10:00,
2013-02-08 20:15:00,23.7,20.7,29.95,North,4,7.9,8.9,88,-99.99,,,-99.99,VWS V14.01,2013-02-09 01:15:00,
2013-02-08 20:20:00,23.7,20.9,29.95,NNW,332,3.5,6.7,89,-99.99,,,-99.99,VWS V14.01,2013-02-09 01:20:00,
2013-02-08 20:25:00,23.6,20.7,29.95,NNW,332,10.1,14.4,89,-99.99,,,-99.99,VWS V14.01,2013-02-09 01:25:00,
2013-02-08 20:30:00,23.6,20.9,29.95,NW,305,8.9,8.9,89,-99.99,,,-99.99,VWS V14.01,2013-02-09 01:30:00,
2013-02-08 20:35:00,23.5,20.9,29.96,West,276,6.2,9.0,90,-99.99,,,-99.99,VWS V14.01,2013-02-09 01:35:00,
2013-02-08 20:40:00,23.5,20.9,29.96,NNW,332,13.2,13.2,90,-99.99,,,-99.99,VWS V14.01,2013-02-09 01:40:00,
2013-02-08 20:45:00,23.7,21.2,29.97,NW,309,5.9,8.0,90,-99.99,,,-99.99,VWS V14.01,2013-02-09 01:45:00,
2013-02-08 20:50:00,23.5,21.0,29.97,WNW,302,7.3,7.3,90,-99.99,,,-99.99,VWS V14.01,2013-02-09 01:50:00,
2013-02-08 20:55:00,23.6,21.2,29.97,West,270,7.3,11.4,90,-99.99,,,-99.99,VWS V14.01,2013-02-09 01:55:00,
2013-02-08 21:00:00,23.6,21.3,29.97,NW,326,7.8,8.0,91,-99.99,,,-99.99,VWS V14.01,2013-02-09 02:00:00,
2013-02-08 21:05:00,23.7,21.4,29.97,NNW,346,7.0,7.0,91,-99.99,,,-99.99,VWS V14.01,2013-02-09 02:05:00,
2013-02-08 21:10:00,23.6,21.2,29.97,NNW,328,10.7,13.2,90,-99.99,,,-99.99,VWS V14.01,2013-02-09 02:10:00,
2013-02-08 21:15:00,23.4,20.7,29.97,NW,309,4.8,12.4,89,-99.99,,,-99.99,VWS V14.01,2013-02-09 02:15:00,
2013-02-08 21:20:00,23.2,20.3,29.97,WNW,285,8.1,11.4,88,-99.99,,,-99.99,VWS V14.01,2013-02-09 02:20:00,
2013-02-08 21:25:00,23.1,20.3,29.98,North,7,12.1,15.0,89,-99.99,,,-99.99,VWS V14.01,2013-02-09 02:25:00,
2013-02-08 21:30:00,22.9,20.3,29.98,NW,318,16.8,19.9,90,-99.99,,,-99.99,VWS V14.01,2013-02-09 02:30:00,
2013-02-08 21:35:00,22.8,20.2,29.98,SW,215,6.0,9.3,90,-99.99,,,-99.99,VWS V14.01,2013-02-09 02:35:00,
2013-02-08 21:40:00,22.9,20.4,29.99,WNW,285,7.0,9.7,90,-99.99,,,-99.99,VWS V14.01,2013-02-09 02:40:00,
2013-02-08 21:45:00,22.8,20.3,29.99,West,270,7.1,19.0,90,-99.99,,,-99.99,VWS V14.01,2013-02-09 02:45:00,
2013-02-08 21:50:00,22.7,20.2,29.99,NW,308,8.9,17.2,90,-99.99,,,-99.99,VWS V14.01,2013-02-09 02:50:00,
2013-02-08 21:55:00,22.7,20.2,29.99,NW,314,10.9,10.9,90,-99.99,,,-99.99,VWS V14.01,2013-02-09 02:55:00,
2013-02-08 22:00:00,22.8,20.4,30.00,North,11,9.1,11.6,90,-99.99,,,-99.99,VWS V14.01,2013-02-09 03:00:00,
2013-02-08 22:05:00,22.8,20.5,30.00,NW,309,16.2,16.2,91,-99.99,,,-99.99,VWS V14.01,2013-02-09 03:05:00,
2013-02-08 22:10:00,22.7,20.6,30.00,WNW,283,8.8,15.3,91,-99.99,,,-99.99,VWS V14.01,2013-02-09 03:10:00,
2013-02-08 22:15:00,22.5,20.4,30.01,NW,316,5.0,11.2,92,-99.99,,,-99.99,VWS V14.01,2013-02-09 03:15:00,
2013-02-08 22:20:00,22.5,20.6,30.01,West,260,3.4,19.1,92,-99.99,,,-99.99,VWS V14.01,2013-02-09 03:20:00,
2013-02-08 22:25:00,22.4,20.7,30.01,NNW,329,4.5,12.9,93,-99.99,,,-99.99,VWS V14.01,2013-02-09 03:25:00,
2013-02-08 22:30:00,22.3,20.7,30.01,NNE,17,7.8,19.4,93,-99.99,,,-99.99,VWS V14.01,2013-02-09 03:30:00,
2013-02-08 22:35:00,22.3,20.9,30.02,West,264,7.5,10.3,94,-99.99,,,-99.99,VWS V14.01,2013-02-09 03:35:00,
2013-02-08 22:40:00,22.4,21.1,30.02,NNW,329,10.9,10.9,95,-99.99,,,-99.99,VWS V14.01,2013-02-09 03:40:00,
2013-02-08 22:45:00,22.3,21.0,30.03,NNW,347,11.6,18.8,94,-99.99,,,-99.99,VWS V14.01,2013-02-09 03:45:00,
2013-02-08 22:50:00,22.3,21.0,30.03,West,266,6.5,17.3,95,-99.99,,,-99.99,VWS V14.01,2013-02-09 03:50:00,
2013-02-08 22:55:00,22.4,21.2,30.03,NNW,333,7.3,14.7,95,-99.99,,,-99.99,VWS V14.01,2013-02-09 03:55:00,
2013-02-08 23:00:00,22.3,21.0,30.03,NNW,338,5.8,19.4,95,-99.99,,,-99.99,VWS V14.01,2013-02-09 04:00:00,
2013-02-08 23:05:00,22.3,20.8,30.03,WNW,283,12.1,20.0,94,-99.99,,,-99.99,VWS V14.01,2013-02-09 04:05:00,
2013-02-08 23:10:00,22.4,21.0,30.03,WNW,298,13.6,14.0,94,-99.99,,,-99.99,VWS V14.01,2013-02-09 04:10:00,
2013-02-08 23:15:00,22.4,20.7,30.03,WSW,249,9.1,13.2,93,-99.99,,,-99.99,VWS V14.01,2013-02-09 04:15:00,
2013-02-08 23:20:00,22.4,20.7,30.03,WNW,294,3.0,15.4,93,-99.99,,,-99.99,VWS V14.01,2013-02-09 04:20:00,
2013-02-08 23:25:00,22.4,20.6,30.03,NW,315,6.0,18.1,93,-99.99,,,-99.99,VWS V14.01,2013-02-09 04:25:00,
2013-02-08 23:30:00,22.4,20.6,30.03,West,259,12.3,19.9,93,-99.99,,,-99.99,VWS V14.01,2013-02-09 04:30:00,
2013-02-08 23:35:00,22.2,20.3,30.04,NNW,330,3.5,13.9,92,-99.99,,,-99.99,VWS V14.01,2013-02-09 04:35:00,
2013-02-08 23:40:00,22.3,20.4,30.04,West,260,4.2,17.8,92,-99.99,,,-99.99,VWS V14.01,2013-02-09 04:40:00,
2013-02-08 23:45:00,22.3,20.5,30.04,NW,321,6.0,12.7,93,-99.99,,,-99.99,VWS V14.01,2013-02-09 04:45:00,
2013-02-08 23:50:00,22.1,20.0,30.05,WSW,243,7.0,20.3,92,-99.99,,,-99.99,VWS V14.01,2013-02-09 04:50:00,
2013-02-08 23:55:00,22.2,20.0,30.05,West,281,13.7,15.3,91,-99.99,,,-99.99,VWS V14.01,2013-02-09 04:55:00,